Weather History for KJDN - November, 2012

Change the Weather History Date:

Wednesday, November 28, 2012

  Actual Average Record
Temperature  
Mean Temperature 33 °F 24 °F  
Max Temperature 46 °F 37 °F - ()
Min Temperature 19 °F 11 °F - ()
Degree Days  
Heating Degree Days 32 41  
Month to date heating degree days 888 964  
Since 1 July heating degree days 1705 1937  
Cooling Degree Days 0 0  
Month to date cooling degree days 0 0  
Year to date cooling degree days 728 421  
Moisture  
Dew Point 22 °F    
Average Humidity 67    
Maximum Humidity 91    
Minimum Humidity 42    
Precipitation  
Precipitation 0.00 in 0.01 in - ()
Month to date precipitation 0.74 0.35  
Year to date precipitation 7.69 12.37  
Snow  
Snow 0.00 in - - ()
Month to date snowfall 0.0  
Since 1 July snowfall 0.0  
Since 1 September snowfall 0.0  
Snow Depth 0.00 in    
Sea Level Pressure  
Sea Level Pressure 30.05 in    
Wind  
Wind Speed 3 mph (ENE)    
Max Wind Speed 9 mph    
Max Gust Speed 12 mph    
T = Trace of Precipitation, MM = Missing Value Source: NWS Daily Summary

Daily Weather History Graph

Daily Weather History Graph

Search for Another Location

Airport or City:

Trip Planner

Search our weather history database for the weather conditions in past years. The results will help you decide how hot, cold, wet, or windy it might be!

Date:

Astronomy

Nov. 28, 2012 Rise Set
Actual Time 7:30 AM MST 4:20 PM MST
Civil Twilight 6:56 AM MST 4:55 PM MST
Nautical Twilight 6:17 AM MST 5:33 PM MST
Astronomical Twilight 5:41 AM MST 6:10 PM MST
Moon 4:37 PM MST (11/28) 7:31 AM MST (11/28)
Length of Visible Light 9h 59m
Length of Day
8h 49m
Full, 100% of the Moon is Illuminated
Nov 28
Full
Dec 6
Last Quarter
Dec 13
New
Dec 19
First Quarter
Dec 28
Full

Hourly Weather History & Observations

Time (MST) Temp. Windchill Dew Point Humidity Pressure Visibility Wind Dir Wind Speed Gust Speed Precip Events Conditions
12:48 AM 21.0 °F - 17.1 °F 85% 30.14 in - Calm Calm - N/A   Unknown
1:48 AM 21.9 °F - 18.0 °F 85% 30.12 in - Calm Calm - N/A   Unknown
2:48 AM 21.0 °F - 18.0 °F 88% 30.10 in - Calm Calm - N/A   Unknown
3:48 AM 21.0 °F - 18.0 °F 88% 30.09 in - Calm Calm - N/A   Unknown
4:48 AM 23.0 °F 17.0 °F 19.0 °F 85% 30.07 in - WNW 4.6 mph - N/A   Unknown
5:48 AM 19.0 °F 10.0 °F 17.1 °F 92% 30.08 in - West 6.9 mph - N/A   Unknown
6:48 AM 21.0 °F 16.2 °F 18.0 °F 88% 30.11 in - West 3.5 mph - N/A   Unknown
7:48 AM 21.0 °F - 18.0 °F 88% 30.11 in - Calm Calm - N/A   Unknown
8:48 AM 27.0 °F - 23.0 °F 85% 30.10 in - Calm Calm - N/A   Unknown
9:48 AM 32.0 °F 28.7 °F 27.0 °F 82% 30.10 in - North 3.5 mph - N/A   Unknown
10:48 AM 36.0 °F - 27.0 °F 70% 30.11 in - Calm Calm - N/A   Unknown
11:48 AM 42.1 °F - 26.1 °F 53% 30.07 in - Calm Calm - N/A   Unknown
12:48 PM 46.0 °F 44.8 °F 25.0 °F 44% 30.06 in - ENE 3.5 mph - N/A   Unknown
1:48 PM 45.0 °F 40.6 °F 24.1 °F 44% 30.04 in - East 8.1 mph - N/A   Unknown
2:48 PM 43.0 °F 38.8 °F 24.1 °F 47% 30.02 in - East 6.9 mph - N/A   Unknown
3:48 PM 37.0 °F 34.5 °F 24.1 °F 59% 30.02 in - East 3.5 mph - N/A   Unknown
4:48 PM 32.0 °F 27.5 °F 24.1 °F 73% 30.02 in - East 4.6 mph - N/A   Unknown
5:48 PM 30.9 °F 23.5 °F 23.0 °F 72% 30.01 in - ENE 8.1 mph - N/A   Unknown
6:48 PM 28.9 °F 22.8 °F 23.0 °F 78% 30.02 in - ENE 5.8 mph - N/A   Unknown
7:48 PM 27.0 °F - 23.0 °F 85% 30.02 in - Calm Calm - N/A   Unknown
8:48 PM 27.0 °F 18.0 °F 23.0 °F 85% 29.99 in - ENE 9.2 mph - N/A   Unknown
9:48 PM 24.1 °F 18.2 °F 21.9 °F 91% 29.98 in - East 4.6 mph - N/A   Unknown
10:48 PM 24.1 °F 18.2 °F 21.0 °F 88% 29.95 in - East 4.6 mph - N/A   Unknown
11:48 PM 24.1 °F 18.2 °F 21.0 °F 88% 29.94 in - East 4.6 mph - N/A   Unknown